This demonstration page uses our WeatherBlox Daily Observations layout. Learn more.

Left ArrowRight Arrow

Hourly Observations for November 28, 2015

Temp ( °F °C ) Dew Point ( °F °C ) Humidity (%) Winds ( mph kmh ) Pressure ( in mb ) Visibility ( mi km ) Precip ( " mm )
12:53 am 00:53 Cloudy 23 -5 15 -9.4 72 72 NNE 10 17 30.54 1034 10 16 0.00 0.00
1:53 am 01:53 Cloudy 23 -5 15 -9.4 72 72 N 6 9 30.55 1035 10 16 0.00 0.00
2:53 am 02:53 Cloudy 23 -5 15 -9.4 72 72 N 10 17 30.54 1034 10 16 0.00 0.00
3:53 am 03:53 Cloudy 23 -5 15 -9.4 72 72 NNE 12 19 30.52 1034 10 16 0.00 0.00
4:53 am 04:53 Cloudy 23 -5 15 -9.4 72 72 NNE 12 19 30.49 1033 10 16 0.00 0.00
5:53 am 05:53 Cloudy 23 -5 15 -9.4 72 72 NNE 9 15 30.48 1032 10 16 0.00 0.00
6:53 am 06:53 Cloudy 23 -5 15 -9.4 72 72 NE 7 11 30.49 1033 10 16 0.00 0.00
7:53 am 07:53 Cloudy 23 -5 15 -9.4 72 72 NE 12 19 30.49 1033 10 16 0.00 0.00
8:53 am 08:53 Cloudy 24 -4.4 16 -8.9 71 71 NE 12 19 30.47 1032 10 16 0.00 0.00
9:53 am 09:53 Cloudy 24 -4.4 17 -8.3 75 75 NE 9 15 30.48 1032 10 16 0.00 0.00
10:53 am 10:53 Cloudy 25 -3.9 16 -8.9 69 69 NE 9 15 30.51 1033 10 16 0.00 0.00
11:53 am 11:53 Cloudy 26 -3.3 16 -8.9 66 66 NNE 7 11 30.49 1033 10 16 0.00 0.00
12:53 pm 12:53 Cloudy 27 -2.8 16 -8.9 63 63 NE 9 15 30.46 1032 10 16 0.00 0.00
1:53 pm 13:53 Cloudy 27 -2.8 15 -9.4 61 61 NE 7 11 30.44 1031 10 16 0.00 0.00
2:53 pm 14:53 Cloudy 27 -2.8 16 -8.9 63 63 NNE 8 13 30.41 1030 10 16 0.00 0.00
3:53 pm 15:53 Cloudy 27 -2.8 15 -9.4 61 61 NE 7 11 30.42 1030 10 16 0.00 0.00
4:53 pm 16:53 Cloudy 27 -2.8 17 -8.3 66 66 NNE 8 13 30.41 1030 10 16 0.00 0.00
5:53 pm 17:53 Cloudy 27 -2.8 17 -8.3 66 66 NNE 6 9 30.41 1030 10 16 0.00 0.00
6:53 pm 18:53 Cloudy 27 -2.8 18 -7.8 69 69 NNE 8 13 30.41 1030 10 16 0.00 0.00
7:53 pm 19:53 Cloudy 27 -2.8 17 -8.3 66 66 N 7 11 30.43 1030 10 16 0.00 0.00
8:53 pm 20:53 Cloudy 27 -2.8 17 -8.3 66 66 NE 5 7 30.42 1030 10 16 0.00 0.00
9:53 pm 21:53 Cloudy 27 -2.8 18 -7.8 69 69 NE 7 11 30.41 1030 10 16 0.00 0.00
10:53 pm 22:53 Cloudy 27 -2.8 18 -7.8 69 69 ENE 6 9 30.41 1030 10 16 0.00 0.00
11:22 pm 23:22 Cloudy 27 -3 18 -8 69 69 ENE 7 11 30.45 1031 10 16 0.00 0.00
11:53 pm 23:53 Cloudy 27 -2.8 17 -8.3 66 66 ENE 6 9 30.40 1030 10 16 0.00 0.00

Powered by AerisWeather